Time,TemperatureF,DewpointF,PressureIn,WindDirection,WindDirectionDegrees,WindSpeedMPH,WindSpeedGustMPH,Humidity,HourlyPrecipIn,Conditions,Clouds,dailyrainin,SoftwareType,DateUTC
2013-02-17 00:01:00,35.8,25.2,29.24,East,90,0.0,1.1,65,0.00,CLR,,0.00,WeatherDisplay:10.37,2013-02-17 07:01:00,
2013-02-17 00:06:00,35.6,25.0,29.25,WNW,292,0.0,0.0,65,0.00,CLR,,0.00,WeatherDisplay:10.37,2013-02-17 07:06:00,
2013-02-17 00:11:00,35.6,25.0,29.25,North,0,0.0,0.0,65,0.00,CLR,,0.00,WeatherDisplay:10.37,2013-02-17 07:11:00,
2013-02-17 00:16:00,35.6,25.0,29.25,NW,315,0.0,0.0,65,0.00,CLR,,0.00,WeatherDisplay:10.37,2013-02-17 07:16:00,
2013-02-17 00:21:00,35.6,25.0,29.25,ENE,68,0.0,0.0,65,0.00,CLR,,0.00,WeatherDisplay:10.37,2013-02-17 07:21:00,
2013-02-17 00:26:00,35.6,25.0,29.23,NW,315,0.0,0.0,65,0.00,CLR,,0.00,WeatherDisplay:10.37,2013-02-17 07:26:00,
2013-02-17 00:31:00,35.4,24.4,29.23,North,0,0.0,0.0,64,0.00,CLR,,0.00,WeatherDisplay:10.37,2013-02-17 07:31:00,
2013-02-17 00:36:00,35.4,24.4,29.23,North,0,0.0,0.0,64,0.00,CLR,,0.00,WeatherDisplay:10.37,2013-02-17 07:36:00,
2013-02-17 00:41:00,35.1,24.1,29.23,ENE,68,0.0,0.0,64,0.00,CLR,,0.00,WeatherDisplay:10.37,2013-02-17 07:41:00,
2013-02-17 00:46:00,35.1,24.1,29.24,North,0,0.0,0.0,64,0.00,CLR,,0.00,WeatherDisplay:10.37,2013-02-17 07:46:00,
2013-02-17 00:51:00,35.1,24.1,29.24,ENE,68,0.0,0.0,64,0.00,CLR,,0.00,WeatherDisplay:10.37,2013-02-17 07:51:00,
2013-02-17 00:56:00,34.9,23.9,29.24,North,0,0.0,0.0,64,0.00,CLR,,0.00,WeatherDisplay:10.37,2013-02-17 07:56:00,
2013-02-17 01:01:00,34.9,23.9,29.24,NNE,22,0.0,0.0,64,0.00,CLR,,0.00,WeatherDisplay:10.37,2013-02-17 08:01:00,
2013-02-17 01:06:00,34.9,23.9,29.23,ENE,68,0.0,0.0,64,0.00,CLR,,0.00,WeatherDisplay:10.37,2013-02-17 08:06:00,
2013-02-17 01:11:00,34.9,23.9,29.23,ENE,68,0.0,0.0,64,0.00,CLR,,0.00,WeatherDisplay:10.37,2013-02-17 08:11:00,
2013-02-17 01:16:00,34.9,23.9,29.23,NNW,338,0.0,0.0,64,0.00,CLR,,0.00,WeatherDisplay:10.37,2013-02-17 08:16:00,
2013-02-17 01:21:00,34.9,23.9,29.23,NE,45,0.0,0.0,64,0.00,CLR,,0.00,WeatherDisplay:10.37,2013-02-17 08:21:00,
2013-02-17 01:26:00,34.9,23.9,29.24,NNW,338,0.0,0.0,64,0.00,CLR,,0.00,WeatherDisplay:10.37,2013-02-17 08:26:00,
2013-02-17 01:31:00,34.9,23.9,29.24,NE,45,0.0,0.0,64,0.00,CLR,,0.00,WeatherDisplay:10.37,2013-02-17 08:31:00,
2013-02-17 01:36:00,34.7,23.8,29.24,NNE,22,0.0,0.0,64,0.00,CLR,,0.00,WeatherDisplay:10.37,2013-02-17 08:36:00,
2013-02-17 01:41:00,34.7,23.8,29.24,NE,45,0.0,0.0,64,0.00,CLR,,0.00,WeatherDisplay:10.37,2013-02-17 08:41:00,
2013-02-17 01:46:00,34.7,23.8,29.22,ESE,112,0.0,0.0,64,0.00,CLR,,0.00,WeatherDisplay:10.37,2013-02-17 08:46:00,
2013-02-17 01:51:00,34.5,23.6,29.22,North,0,0.0,0.0,64,0.00,CLR,,0.00,WeatherDisplay:10.37,2013-02-17 08:51:00,
2013-02-17 01:56:00,34.7,23.8,29.22,East,90,0.0,0.0,64,0.00,CLR,,0.00,WeatherDisplay:10.37,2013-02-17 08:56:00,
2013-02-17 02:01:00,34.7,23.8,29.22,ENE,68,0.0,0.0,64,0.00,CLR,,0.00,WeatherDisplay:10.37,2013-02-17 09:01:00,
2013-02-17 02:06:00,34.5,23.6,29.23,North,0,0.0,0.0,64,0.00,CLR,,0.00,WeatherDisplay:10.37,2013-02-17 09:06:00,
2013-02-17 02:11:00,34.3,23.8,29.23,NNW,338,0.0,0.0,65,0.00,CLR,,0.00,WeatherDisplay:10.37,2013-02-17 09:11:00,
2013-02-17 02:16:00,34.3,23.8,29.23,North,0,0.0,0.0,65,0.00,CLR,,0.00,WeatherDisplay:10.37,2013-02-17 09:16:00,
2013-02-17 02:21:00,34.2,23.6,29.23,North,0,0.0,0.0,65,0.00,CLR,,0.00,WeatherDisplay:10.37,2013-02-17 09:21:00,
2013-02-17 02:26:00,34.2,23.6,29.21,NNE,22,0.0,0.0,65,0.00,CLR,,0.00,WeatherDisplay:10.37,2013-02-17 09:26:00,
2013-02-17 02:31:00,34.2,23.6,29.21,North,0,0.0,0.0,65,0.00,CLR,,0.00,WeatherDisplay:10.37,2013-02-17 09:31:00,
2013-02-17 02:36:00,34.0,23.4,29.21,NNE,22,0.0,0.0,65,0.00,CLR,,0.00,WeatherDisplay:10.37,2013-02-17 09:36:00,
2013-02-17 02:41:00,34.0,23.4,29.21,NE,45,0.0,0.0,65,0.00,CLR,,0.00,WeatherDisplay:10.37,2013-02-17 09:41:00,
2013-02-17 02:46:00,33.8,23.3,29.23,ESE,112,0.0,0.0,65,0.00,CLR,,0.00,WeatherDisplay:10.37,2013-02-17 09:46:00,
2013-02-17 02:51:00,33.4,22.9,29.23,ENE,68,0.0,0.0,65,0.00,CLR,,0.00,WeatherDisplay:10.37,2013-02-17 09:51:00,
2013-02-17 02:56:00,33.6,23.1,29.23,ENE,68,0.0,0.0,65,0.00,CLR,,0.00,WeatherDisplay:10.37,2013-02-17 09:56:00,
2013-02-17 03:01:00,33.4,22.9,29.23,SSE,158,0.0,0.1,65,0.00,CLR,,0.00,WeatherDisplay:10.37,2013-02-17 10:01:00,
2013-02-17 03:06:00,33.4,22.9,29.22,SSE,158,2.3,2.3,65,0.00,CLR,,0.00,WeatherDisplay:10.37,2013-02-17 10:06:00,
2013-02-17 03:11:00,33.1,22.9,29.22,SSE,158,2.3,2.3,66,0.00,CLR,,0.00,WeatherDisplay:10.37,2013-02-17 10:11:00,
2013-02-17 03:16:00,33.3,23.5,29.22,NNE,22,4.6,4.6,67,0.00,CLR,,0.00,WeatherDisplay:10.37,2013-02-17 10:16:00,
2013-02-17 03:21:00,33.1,23.7,29.22,SW,225,0.0,1.3,68,0.00,CLR,,0.00,WeatherDisplay:10.37,2013-02-17 10:21:00,
2013-02-17 03:26:00,32.9,23.8,29.23,ESE,112,1.1,1.1,69,0.00,CLR,,0.00,WeatherDisplay:10.37,2013-02-17 10:26:00,
2013-02-17 03:31:00,32.7,24.0,29.23,NE,45,0.0,0.0,70,0.00,CLR,,0.00,WeatherDisplay:10.37,2013-02-17 10:31:00,
2013-02-17 03:36:00,32.7,24.0,29.23,WSW,248,0.0,0.0,70,0.00,CLR,,0.00,WeatherDisplay:10.37,2013-02-17 10:36:00,
2013-02-17 03:41:00,32.7,24.0,29.23,SE,135,0.0,0.1,70,0.00,CLR,,0.00,WeatherDisplay:10.37,2013-02-17 10:41:00,
2013-02-17 03:46:00,32.7,24.0,29.23,WSW,248,0.0,0.1,70,0.00,CLR,,0.00,WeatherDisplay:10.37,2013-02-17 10:46:00,
2013-02-17 03:51:00,32.7,24.0,29.23,East,90,0.0,0.3,70,0.00,CLR,,0.00,WeatherDisplay:10.37,2013-02-17 10:51:00,
2013-02-17 03:56:00,32.9,24.2,29.23,East,90,0.0,0.2,70,0.00,CLR,,0.00,WeatherDisplay:10.37,2013-02-17 10:56:00,
2013-02-17 04:01:00,32.7,23.7,29.23,ENE,68,0.0,0.2,69,0.00,CLR,,0.00,WeatherDisplay:10.37,2013-02-17 11:01:00,
2013-02-17 04:06:00,32.7,23.7,29.24,WSW,248,0.0,0.1,69,0.00,CLR,,0.00,WeatherDisplay:10.37,2013-02-17 11:06:00,
2013-02-17 04:11:00,32.5,23.5,29.24,NNW,338,0.0,0.0,69,0.00,CLR,,0.00,WeatherDisplay:10.37,2013-02-17 11:11:00,
2013-02-17 04:16:00,32.5,23.5,29.24,NNW,338,0.0,0.0,69,0.00,CLR,,0.00,WeatherDisplay:10.37,2013-02-17 11:16:00,
2013-02-17 04:21:00,32.5,23.5,29.24,NW,315,0.0,0.1,69,0.00,CLR,,0.00,WeatherDisplay:10.37,2013-02-17 11:21:00,
2013-02-17 04:26:00,32.4,23.7,29.24,East,90,4.6,4.6,70,0.00,CLR,,0.00,WeatherDisplay:10.37,2013-02-17 11:26:00,
2013-02-17 04:31:00,32.2,23.1,29.24,East,90,0.0,0.3,69,0.00,CLR,,0.00,WeatherDisplay:10.37,2013-02-17 11:31:00,
2013-02-17 04:36:00,32.0,23.0,29.24,North,0,0.0,0.0,69,0.00,CLR,,0.00,WeatherDisplay:10.37,2013-02-17 11:36:00,
2013-02-17 04:41:00,31.8,22.8,29.24,NE,45,0.0,0.0,69,0.00,CLR,,0.00,WeatherDisplay:10.37,2013-02-17 11:41:00,
2013-02-17 04:46:00,31.8,22.8,29.23,North,0,0.0,0.0,69,0.00,CLR,,0.00,WeatherDisplay:10.37,2013-02-17 11:46:00,
2013-02-17 04:51:00,31.8,22.8,29.23,SW,225,0.0,0.0,69,0.00,CLR,,0.00,WeatherDisplay:10.37,2013-02-17 11:51:00,
2013-02-17 04:56:00,31.5,22.5,29.23,North,0,0.0,0.0,69,0.00,CLR,,0.00,WeatherDisplay:10.37,2013-02-17 11:56:00,
2013-02-17 05:01:00,31.5,22.5,29.23,ESE,112,0.0,0.0,69,0.00,CLR,,0.00,WeatherDisplay:10.37,2013-02-17 12:01:00,
2013-02-17 05:06:00,31.1,22.1,29.22,NW,315,0.0,0.0,69,0.00,CLR,,0.00,WeatherDisplay:10.37,2013-02-17 12:06:00,
2013-02-17 05:11:00,31.1,22.1,29.22,NW,315,0.0,0.0,69,0.00,CLR,,0.00,WeatherDisplay:10.37,2013-02-17 12:11:00,
2013-02-17 05:16:00,31.1,22.1,29.22,NW,315,0.0,0.0,69,0.00,CLR,,0.00,WeatherDisplay:10.37,2013-02-17 12:16:00,
2013-02-17 05:21:00,30.7,21.8,29.22,ENE,68,0.0,0.0,69,0.00,CLR,,0.00,WeatherDisplay:10.37,2013-02-17 12:21:00,
2013-02-17 05:26:00,30.4,21.4,29.22,East,90,0.0,0.0,69,0.00,CLR,,0.00,WeatherDisplay:10.37,2013-02-17 12:26:00,
2013-02-17 05:31:00,30.4,21.4,29.22,NE,45,0.0,0.0,69,0.00,CLR,,0.00,WeatherDisplay:10.37,2013-02-17 12:31:00,
2013-02-17 05:36:00,30.0,21.1,29.22,North,0,0.0,0.0,69,0.00,CLR,,0.00,WeatherDisplay:10.37,2013-02-17 12:36:00,
2013-02-17 05:41:00,29.7,20.4,29.22,ENE,68,0.0,0.0,68,0.00,CLR,,0.00,WeatherDisplay:10.37,2013-02-17 12:41:00,
2013-02-17 05:46:00,29.3,20.0,29.21,NW,315,0.0,0.0,68,0.00,CLR,,0.00,WeatherDisplay:10.37,2013-02-17 12:46:00,
2013-02-17 05:51:00,28.9,19.7,29.21,WSW,248,0.0,0.0,68,0.00,CLR,,0.00,WeatherDisplay:10.37,2013-02-17 12:51:00,
2013-02-17 05:56:00,28.8,19.5,29.21,WSW,248,0.0,0.0,68,0.00,CLR,,0.00,WeatherDisplay:10.37,2013-02-17 12:56:00,
2013-02-17 06:01:00,28.6,19.4,29.21,North,0,0.0,0.0,68,0.00,CLR,,0.00,WeatherDisplay:10.37,2013-02-17 13:01:00,
2013-02-17 06:06:00,28.6,19.4,29.21,North,0,0.0,0.0,68,0.00,CLR,,0.00,WeatherDisplay:10.37,2013-02-17 13:06:00,
2013-02-17 06:11:00,28.6,19.4,29.21,NNW,338,0.0,0.7,68,0.00,CLR,,0.00,WeatherDisplay:10.37,2013-02-17 13:11:00,
2013-02-17 06:16:00,28.9,19.3,29.21,SSW,202,1.4,1.4,67,0.00,CLR,,0.00,WeatherDisplay:10.37,2013-02-17 13:16:00,
2013-02-17 06:21:00,28.9,19.0,29.21,SSW,202,0.0,0.5,66,0.00,CLR,,0.00,WeatherDisplay:10.37,2013-02-17 13:21:00,
2013-02-17 06:26:00,29.3,19.3,29.21,NNE,22,1.1,1.1,66,0.00,CLR,,0.00,WeatherDisplay:10.37,2013-02-17 13:26:00,
2013-02-17 06:31:00,28.9,19.0,29.21,North,0,0.0,0.3,66,0.00,CLR,,0.00,WeatherDisplay:10.37,2013-02-17 13:31:00,
2013-02-17 06:36:00,28.9,18.6,29.21,North,0,0.0,0.3,65,0.00,CLR,,0.00,WeatherDisplay:10.37,2013-02-17 13:36:00,
2013-02-17 06:41:00,28.6,18.3,29.21,NW,315,0.0,0.1,65,0.00,CLR,,0.00,WeatherDisplay:10.37,2013-02-17 13:41:00,
2013-02-17 06:46:00,28.6,18.7,29.22,WNW,292,0.0,0.0,66,0.00,CLR,,0.00,WeatherDisplay:10.37,2013-02-17 13:46:00,
2013-02-17 06:51:00,28.4,18.1,29.22,WSW,248,0.0,0.1,65,0.00,CLR,,0.00,WeatherDisplay:10.37,2013-02-17 13:51:00,
2013-02-17 06:56:00,28.4,18.1,29.22,NW,315,0.0,0.1,65,0.00,CLR,,0.00,WeatherDisplay:10.37,2013-02-17 13:56:00,
2013-02-17 07:01:00,28.6,18.3,29.22,SW,225,0.0,0.0,65,0.00,CLR,,0.00,WeatherDisplay:10.37,2013-02-17 14:01:00,
2013-02-17 07:06:00,28.4,18.1,29.23,SE,135,0.0,0.0,65,0.00,CLR,,0.00,WeatherDisplay:10.37,2013-02-17 14:06:00,
2013-02-17 07:11:00,28.4,18.1,29.23,East,90,0.0,0.0,65,0.00,CLR,,0.00,WeatherDisplay:10.37,2013-02-17 14:11:00,
2013-02-17 07:16:00,28.4,18.1,29.23,SSW,202,2.3,2.3,65,0.00,CLR,,0.00,WeatherDisplay:10.37,2013-02-17 14:16:00,
2013-02-17 07:21:00,28.9,18.6,29.23,WSW,248,0.0,0.1,65,0.00,CLR,,0.00,WeatherDisplay:10.37,2013-02-17 14:21:00,
2013-02-17 07:26:00,28.9,18.6,29.25,SW,225,3.5,3.5,65,0.00,CLR,,0.00,WeatherDisplay:10.37,2013-02-17 14:26:00,
2013-02-17 07:31:00,29.7,19.3,29.25,SSE,158,2.9,2.9,65,0.00,CLR,,0.00,WeatherDisplay:10.37,2013-02-17 14:31:00,
2013-02-17 07:36:00,29.7,19.3,29.25,SSE,158,5.8,5.8,65,0.00,CLR,,0.00,WeatherDisplay:10.37,2013-02-17 14:36:00,
2013-02-17 07:41:00,30.0,19.7,29.25,ESE,112,2.6,2.6,65,0.00,CLR,,0.00,WeatherDisplay:10.37,2013-02-17 14:41:00,
2013-02-17 07:46:00,30.0,19.7,29.25,NE,45,0.0,0.5,65,0.00,CLR,,0.00,WeatherDisplay:10.37,2013-02-17 14:46:00,
2013-02-17 07:51:00,30.4,20.0,29.25,ESE,112,0.0,0.2,65,0.00,CLR,,0.00,WeatherDisplay:10.37,2013-02-17 14:51:00,
2013-02-17 07:56:00,30.4,19.6,29.25,SSW,202,1.1,1.1,64,0.00,CLR,,0.00,WeatherDisplay:10.37,2013-02-17 14:56:00,
2013-02-17 08:01:00,30.6,19.8,29.25,NW,315,0.0,0.2,64,0.00,CLR,,0.00,WeatherDisplay:10.37,2013-02-17 15:01:00,
2013-02-17 08:06:00,30.7,20.0,29.26,South,180,3.5,3.5,64,0.00,CLR,,0.00,WeatherDisplay:10.37,2013-02-17 15:06:00,
2013-02-17 08:12:00,31.1,20.3,29.26,WSW,248,0.0,0.3,64,0.00,CLR,,0.00,WeatherDisplay:10.37,2013-02-17 15:12:00,
2013-02-17 08:17:00,31.1,20.3,29.26,WSW,248,0.0,0.3,64,0.00,CLR,,0.00,WeatherDisplay:10.37,2013-02-17 15:17:00,
2013-02-17 08:22:00,31.1,20.3,29.26,WNW,292,0.0,0.0,64,0.00,CLR,,0.00,WeatherDisplay:10.37,2013-02-17 15:22:00,
2013-02-17 08:27:00,31.1,20.3,29.26,West,270,0.0,0.0,64,0.00,CLR,,0.00,WeatherDisplay:10.37,2013-02-17 15:27:00,
2013-02-17 08:32:00,31.5,20.7,29.26,WNW,292,2.0,2.0,64,0.00,CLR,,0.00,WeatherDisplay:10.37,2013-02-17 15:32:00,
2013-02-17 08:37:00,31.3,20.5,29.26,WSW,248,3.5,3.5,64,0.00,CLR,,0.00,WeatherDisplay:10.37,2013-02-17 15:37:00,
2013-02-17 08:42:00,31.5,20.3,29.26,NNE,22,0.0,0.8,63,0.00,CLR,,0.00,WeatherDisplay:10.37,2013-02-17 15:42:00,
2013-02-17 08:47:00,31.8,20.6,29.26,WNW,292,2.3,2.3,63,0.00,CLR,,0.00,WeatherDisplay:10.37,2013-02-17 15:47:00,
2013-02-17 08:52:00,31.8,20.6,29.26,WSW,248,0.0,0.1,63,0.00,CLR,,0.00,WeatherDisplay:10.37,2013-02-17 15:52:00,
2013-02-17 08:57:00,31.8,20.3,29.26,NNW,338,2.3,2.3,62,0.00,CLR,,0.00,WeatherDisplay:10.37,2013-02-17 15:57:00,
2013-02-17 09:02:00,31.8,20.3,29.26,ENE,68,0.0,0.1,62,0.00,CLR,,0.00,WeatherDisplay:10.37,2013-02-17 16:02:00,
2013-02-17 09:07:00,32.0,20.4,29.26,NNE,22,0.0,0.0,62,0.00,CLR,,0.00,WeatherDisplay:10.37,2013-02-17 16:07:00,
2013-02-17 09:12:00,32.2,20.6,29.26,WNW,292,0.0,0.0,62,0.00,CLR,,0.00,WeatherDisplay:10.37,2013-02-17 16:12:00,
2013-02-17 09:17:00,32.5,21.0,29.26,ENE,68,0.0,0.0,62,0.00,CLR,,0.00,WeatherDisplay:10.37,2013-02-17 16:17:00,
2013-02-17 09:22:00,32.4,20.8,29.26,NNW,338,0.0,0.0,62,0.00,CLR,,0.00,WeatherDisplay:10.37,2013-02-17 16:22:00,
2013-02-17 09:27:00,32.7,21.1,29.27,SW,225,0.0,0.0,62,0.00,CLR,,0.00,WeatherDisplay:10.37,2013-02-17 16:27:00,
2013-02-17 09:32:00,32.7,21.1,29.27,North,0,0.0,0.0,62,0.00,CLR,,0.00,WeatherDisplay:10.37,2013-02-17 16:32:00,
2013-02-17 09:37:00,32.9,21.3,29.27,East,90,0.0,0.0,62,0.00,CLR,,0.00,WeatherDisplay:10.37,2013-02-17 16:37:00,
2013-02-17 09:42:00,33.1,21.5,29.27,SW,225,0.0,0.0,62,0.00,CLR,,0.00,WeatherDisplay:10.37,2013-02-17 16:42:00,
2013-02-17 09:47:00,33.3,21.3,29.27,SSW,202,0.0,0.3,61,0.00,CLR,,0.00,WeatherDisplay:10.37,2013-02-17 16:47:00,
2013-02-17 09:52:00,33.6,21.6,29.27,NE,45,0.0,0.5,61,0.00,CLR,,0.00,WeatherDisplay:10.37,2013-02-17 16:52:00,
2013-02-17 09:57:00,33.8,21.8,29.27,NNE,22,0.0,0.3,61,0.00,CLR,,0.00,WeatherDisplay:10.37,2013-02-17 16:57:00,
2013-02-17 10:02:00,34.2,22.1,29.27,North,0,0.0,0.3,61,0.00,CLR,,0.00,WeatherDisplay:10.37,2013-02-17 17:02:00,
2013-02-17 10:07:00,34.7,22.6,29.27,SSW,202,0.0,0.2,61,0.00,CLR,,0.00,WeatherDisplay:10.37,2013-02-17 17:07:00,
2013-02-17 10:12:00,34.7,22.6,29.27,East,90,1.1,1.1,61,0.00,CLR,,0.00,WeatherDisplay:10.37,2013-02-17 17:12:00,
2013-02-17 10:17:00,34.9,22.4,29.27,SW,225,2.3,2.3,60,0.00,CLR,,0.00,WeatherDisplay:10.37,2013-02-17 17:17:00,
2013-02-17 10:22:00,35.1,22.6,29.27,SW,225,0.0,0.3,60,0.00,CLR,,0.00,WeatherDisplay:10.37,2013-02-17 17:22:00,
2013-02-17 10:27:00,35.4,22.9,29.28,South,180,3.5,3.5,60,0.00,CLR,,0.00,WeatherDisplay:10.37,2013-02-17 17:27:00,
2013-02-17 10:32:00,35.8,22.8,29.28,SE,135,5.2,5.2,59,0.00,CLR,,0.00,WeatherDisplay:10.37,2013-02-17 17:32:00,
2013-02-17 10:37:00,35.8,22.8,29.28,NE,45,2.3,2.3,59,0.00,CLR,,0.00,WeatherDisplay:10.37,2013-02-17 17:37:00,
2013-02-17 10:42:00,35.8,22.4,29.28,SW,225,2.3,2.3,58,0.00,CLR,,0.00,WeatherDisplay:10.37,2013-02-17 17:42:00,
2013-02-17 10:47:00,36.1,23.2,29.29,North,0,3.5,3.5,59,0.00,CLR,,0.00,WeatherDisplay:10.37,2013-02-17 17:47:00,
2013-02-17 10:52:00,36.1,22.4,29.29,SSW,202,5.8,5.8,57,0.00,CLR,,0.00,WeatherDisplay:10.37,2013-02-17 17:52:00,
2013-02-17 10:57:00,36.1,22.8,29.29,North,0,2.3,2.3,58,0.00,CLR,,0.00,WeatherDisplay:10.37,2013-02-17 17:57:00,
2013-02-17 11:02:00,36.0,22.2,29.29,SW,225,4.6,4.6,57,0.00,CLR,,0.00,WeatherDisplay:10.37,2013-02-17 18:02:00,
2013-02-17 11:07:00,36.3,22.5,29.29,SSW,202,0.0,1.1,57,0.00,CLR,,0.00,WeatherDisplay:10.37,2013-02-17 18:07:00,
2013-02-17 11:12:00,36.5,22.7,29.29,NNW,338,1.1,1.1,57,0.00,CLR,,0.00,WeatherDisplay:10.37,2013-02-17 18:12:00,
2013-02-17 11:17:00,36.3,22.1,29.29,East,90,1.4,1.4,56,0.00,CLR,,0.00,WeatherDisplay:10.37,2013-02-17 18:17:00,
2013-02-17 11:22:00,36.5,22.7,29.29,SSW,202,0.0,1.1,57,0.00,CLR,,0.00,WeatherDisplay:10.37,2013-02-17 18:22:00,
2013-02-17 11:27:00,36.9,23.0,29.30,WSW,248,0.0,1.1,57,0.00,CLR,,0.00,WeatherDisplay:10.37,2013-02-17 18:27:00,
2013-02-17 11:32:00,36.9,23.0,29.30,ENE,68,4.6,4.6,57,0.00,CLR,,0.00,WeatherDisplay:10.37,2013-02-17 18:32:00,
2013-02-17 11:37:00,37.2,22.9,29.30,SE,135,3.6,3.6,56,0.00,CLR,,0.00,WeatherDisplay:10.37,2013-02-17 18:37:00,
2013-02-17 11:42:00,37.4,23.1,29.30,North,0,5.8,5.8,56,0.00,CLR,,0.00,WeatherDisplay:10.37,2013-02-17 18:42:00,
2013-02-17 11:47:00,37.4,22.7,29.32,WSW,248,2.3,2.3,55,0.00,CLR,,0.00,WeatherDisplay:10.37,2013-02-17 18:47:00,
2013-02-17 11:52:00,37.6,22.9,29.32,South,180,2.3,2.3,55,0.00,CLR,,0.00,WeatherDisplay:10.37,2013-02-17 18:52:00,
2013-02-17 11:57:00,37.6,22.9,29.32,SSW,202,0.0,1.1,55,0.00,CLR,,0.00,WeatherDisplay:10.37,2013-02-17 18:57:00,
2013-02-17 12:02:00,37.6,22.9,29.32,SW,225,5.8,5.8,55,0.00,CLR,,0.00,WeatherDisplay:10.37,2013-02-17 19:02:00,
2013-02-17 12:07:00,37.6,22.9,29.35,SW,225,2.3,2.3,55,0.00,CLR,,0.00,WeatherDisplay:10.37,2013-02-17 19:07:00,
2013-02-17 12:12:00,37.4,21.8,29.35,SSE,158,3.5,3.5,53,0.00,CLR,,0.00,WeatherDisplay:10.37,2013-02-17 19:12:00,
2013-02-17 12:17:00,37.6,22.0,29.35,SE,135,3.5,3.5,53,0.00,CLR,,0.00,WeatherDisplay:10.37,2013-02-17 19:17:00,
2013-02-17 12:22:00,37.9,21.9,29.35,SSE,158,3.5,3.5,52,0.00,CLR,,0.00,WeatherDisplay:10.37,2013-02-17 19:22:00,
2013-02-17 12:27:00,37.8,22.1,29.36,SSW,202,4.6,4.6,53,0.00,CLR,,0.00,WeatherDisplay:10.37,2013-02-17 19:27:00,
2013-02-17 12:32:00,37.8,22.1,29.36,South,180,1.1,2.2,53,0.00,CLR,,0.00,WeatherDisplay:10.37,2013-02-17 19:32:00,
2013-02-17 12:37:00,37.9,22.3,29.36,East,90,4.6,4.6,53,0.00,CLR,,0.00,WeatherDisplay:10.37,2013-02-17 19:37:00,
2013-02-17 12:42:00,38.3,23.1,29.36,NE,45,3.5,3.5,54,0.00,CLR,,0.00,WeatherDisplay:10.37,2013-02-17 19:42:00,
2013-02-17 12:47:00,38.3,22.2,29.34,ESE,112,3.5,3.5,52,0.00,CLR,,0.00,WeatherDisplay:10.37,2013-02-17 19:47:00,
2013-02-17 12:52:00,38.5,22.4,29.34,North,0,4.6,4.6,52,0.00,CLR,,0.00,WeatherDisplay:10.37,2013-02-17 19:52:00,
2013-02-17 12:57:00,38.5,22.8,29.34,East,90,5.8,5.8,53,0.00,CLR,,0.00,WeatherDisplay:10.37,2013-02-17 19:57:00,
2013-02-17 13:02:00,38.7,22.5,29.34,SE,135,4.6,4.6,52,0.00,CLR,,0.00,WeatherDisplay:10.37,2013-02-17 20:02:00,
2013-02-17 13:07:00,38.7,22.1,29.34,East,90,3.5,3.5,51,0.00,CLR,,0.00,WeatherDisplay:10.37,2013-02-17 20:07:00,
2013-02-17 13:12:00,39.0,22.9,29.34,SSW,202,1.1,2.4,52,0.00,CLR,,0.00,WeatherDisplay:10.37,2013-02-17 20:12:00,
2013-02-17 13:17:00,39.0,22.4,29.34,SW,225,4.6,4.6,51,0.00,CLR,,0.00,WeatherDisplay:10.37,2013-02-17 20:17:00,
2013-02-17 13:22:00,39.0,22.4,29.34,East,90,6.9,6.9,51,0.00,CLR,,0.00,WeatherDisplay:10.37,2013-02-17 20:22:00,
2013-02-17 13:27:00,39.0,22.4,29.36,ESE,112,4.6,4.6,51,0.00,CLR,,0.00,WeatherDisplay:10.37,2013-02-17 20:27:00,
2013-02-17 13:32:00,38.8,22.2,29.36,SSW,202,4.6,4.6,51,0.00,CLR,,0.00,WeatherDisplay:10.37,2013-02-17 20:32:00,
2013-02-17 13:37:00,38.5,21.9,29.36,SSE,158,9.2,9.2,51,0.00,CLR,,0.00,WeatherDisplay:10.37,2013-02-17 20:37:00,
2013-02-17 13:42:00,38.5,22.4,29.36,SW,225,2.3,2.8,52,0.00,CLR,,0.00,WeatherDisplay:10.37,2013-02-17 20:42:00,
2013-02-17 13:47:00,38.5,22.8,29.32,SW,225,2.3,2.9,53,0.00,CLR,,0.00,WeatherDisplay:10.37,2013-02-17 20:47:00,
2013-02-17 13:52:00,38.7,22.5,29.32,South,180,9.2,9.2,52,0.00,CLR,,0.00,WeatherDisplay:10.37,2013-02-17 20:52:00,
2013-02-17 13:57:00,37.8,21.2,29.32,SE,135,4.6,4.6,51,0.00,CLR,,0.00,WeatherDisplay:10.37,2013-02-17 20:57:00,
2013-02-17 14:02:00,37.4,20.9,29.32,SW,225,5.8,5.8,51,0.00,CLR,,0.00,WeatherDisplay:10.37,2013-02-17 21:02:00,
2013-02-17 14:07:00,37.2,21.2,29.31,ENE,68,9.2,9.2,52,0.00,CLR,,0.00,WeatherDisplay:10.37,2013-02-17 21:07:00,
2013-02-17 14:12:00,37.0,21.0,29.31,SSE,158,10.4,10.4,52,0.00,CLR,,0.00,WeatherDisplay:10.37,2013-02-17 21:12:00,
2013-02-17 14:17:00,37.0,21.0,29.31,North,0,2.3,2.4,52,0.00,CLR,,0.00,WeatherDisplay:10.37,2013-02-17 21:17:00,
2013-02-17 14:22:00,37.0,21.5,29.31,SW,225,9.2,9.2,53,0.00,CLR,,0.00,WeatherDisplay:10.37,2013-02-17 21:22:00,
2013-02-17 14:27:00,37.0,21.5,29.29,East,90,0.0,2.2,53,0.00,CLR,,0.00,WeatherDisplay:10.37,2013-02-17 21:27:00,
2013-02-17 14:32:00,37.0,21.5,29.29,SSW,202,0.0,1.5,53,0.00,CLR,,0.00,WeatherDisplay:10.37,2013-02-17 21:32:00,
2013-02-17 14:37:00,37.0,21.5,29.29,ESE,112,2.3,2.3,53,0.00,CLR,,0.00,WeatherDisplay:10.37,2013-02-17 21:37:00,
2013-02-17 14:42:00,37.6,22.0,29.29,South,180,5.8,5.8,53,0.00,CLR,,0.00,WeatherDisplay:10.37,2013-02-17 21:42:00,
2013-02-17 14:47:00,37.2,21.6,29.29,SW,225,2.3,2.3,53,0.00,CLR,,0.00,WeatherDisplay:10.37,2013-02-17 21:47:00,
2013-02-17 14:53:00,37.6,22.0,29.29,East,90,5.8,5.8,53,0.00,CLR,,0.00,WeatherDisplay:10.37,2013-02-17 21:53:00,
2013-02-17 14:58:00,37.4,21.8,29.29,NE,45,4.6,4.6,53,0.00,CLR,,0.00,WeatherDisplay:10.37,2013-02-17 21:58:00,
2013-02-17 15:03:00,37.6,22.0,29.29,WSW,248,0.0,1.8,53,0.00,CLR,,0.00,WeatherDisplay:10.37,2013-02-17 22:03:00,
2013-02-17 15:08:00,37.8,22.1,29.29,SW,225,3.5,3.5,53,0.00,CLR,,0.00,WeatherDisplay:10.37,2013-02-17 22:08:00,
2013-02-17 15:13:00,37.6,22.0,29.29,SW,225,2.3,2.3,53,0.00,CLR,,0.00,WeatherDisplay:10.37,2013-02-17 22:13:00,
2013-02-17 15:18:00,37.8,21.7,29.29,SSE,158,0.0,0.7,52,0.00,CLR,,0.00,WeatherDisplay:10.37,2013-02-17 22:18:00,
2013-02-17 15:23:00,37.2,21.2,29.29,SSW,202,5.8,5.8,52,0.00,CLR,,0.00,WeatherDisplay:10.37,2013-02-17 22:23:00,
2013-02-17 15:28:00,37.0,21.0,29.31,WNW,292,2.3,2.3,52,0.00,CLR,,0.00,WeatherDisplay:10.37,2013-02-17 22:28:00,
2013-02-17 15:33:00,37.0,21.0,29.31,ENE,68,3.5,3.5,52,0.00,CLR,,0.00,WeatherDisplay:10.37,2013-02-17 22:33:00,
2013-02-17 15:38:00,37.0,21.0,29.31,SW,225,0.0,0.5,52,0.00,CLR,,0.00,WeatherDisplay:10.37,2013-02-17 22:38:00,
2013-02-17 15:43:00,37.0,21.0,29.31,SE,135,6.9,6.9,52,0.00,CLR,,0.00,WeatherDisplay:10.37,2013-02-17 22:43:00,
2013-02-17 15:48:00,37.0,21.0,29.31,East,90,5.8,5.8,52,0.00,CLR,,0.00,WeatherDisplay:10.37,2013-02-17 22:48:00,
2013-02-17 15:53:00,36.9,20.9,29.31,North,0,3.5,3.5,52,0.00,CLR,,0.00,WeatherDisplay:10.37,2013-02-17 22:53:00,
2013-02-17 15:58:00,37.0,21.0,29.31,WSW,248,2.3,2.3,52,0.00,CLR,,0.00,WeatherDisplay:10.37,2013-02-17 22:58:00,
2013-02-17 16:03:00,36.9,20.9,29.31,SE,135,2.3,2.3,52,0.00,CLR,,0.00,WeatherDisplay:10.37,2013-02-17 23:03:00,
2013-02-17 16:08:00,36.9,20.9,29.31,WSW,248,2.3,2.3,52,0.00,CLR,,0.00,WeatherDisplay:10.37,2013-02-17 23:08:00,
2013-02-17 16:13:00,36.9,20.9,29.31,SSW,202,1.1,1.1,52,0.00,CLR,,0.00,WeatherDisplay:10.37,2013-02-17 23:13:00,
2013-02-17 16:18:00,36.5,20.5,29.31,SW,225,2.3,2.3,52,0.00,CLR,,0.00,WeatherDisplay:10.37,2013-02-17 23:18:00,
2013-02-17 16:23:00,36.5,21.0,29.31,NW,315,1.1,1.1,53,0.00,CLR,,0.00,WeatherDisplay:10.37,2013-02-17 23:23:00,
2013-02-17 16:28:00,36.3,20.4,29.33,SSE,158,1.1,1.1,52,0.00,CLR,,0.00,WeatherDisplay:10.37,2013-02-17 23:28:00,
2013-02-17 16:33:00,36.5,20.5,29.33,West,270,2.3,2.3,52,0.00,CLR,,0.00,WeatherDisplay:10.37,2013-02-17 23:33:00,
2013-02-17 16:38:00,36.1,20.2,29.33,SSE,158,3.5,3.5,52,0.00,CLR,,0.00,WeatherDisplay:10.37,2013-02-17 23:38:00,
2013-02-17 16:43:00,36.0,20.5,29.33,SE,135,0.0,1.5,53,0.00,CLR,,0.00,WeatherDisplay:10.37,2013-02-17 23:43:00,
2013-02-17 16:48:00,36.1,20.2,29.33,NNW,338,2.3,2.3,52,0.00,CLR,,0.00,WeatherDisplay:10.37,2013-02-17 23:48:00,
2013-02-17 16:53:00,36.1,20.6,29.33,ENE,68,0.0,0.5,53,0.00,CLR,,0.00,WeatherDisplay:10.37,2013-02-17 23:53:00,
2013-02-17 16:58:00,36.0,20.5,29.33,SW,225,0.0,0.1,53,0.00,CLR,,0.00,WeatherDisplay:10.37,2013-02-17 23:58:00,
2013-02-17 17:03:00,36.1,20.6,29.33,SW,225,1.1,1.1,53,0.00,CLR,,0.00,WeatherDisplay:10.37,2013-02-18 00:03:00,
2013-02-17 17:08:00,35.8,20.3,29.33,SW,225,2.3,2.3,53,0.00,CLR,,0.00,WeatherDisplay:10.37,2013-02-18 00:08:00,
2013-02-17 17:13:00,35.6,19.7,29.33,SE,135,1.4,1.4,52,0.00,CLR,,0.00,WeatherDisplay:10.37,2013-02-18 00:13:00,
2013-02-17 17:18:00,35.8,20.3,29.33,SSW,202,3.5,3.5,53,0.00,CLR,,0.00,WeatherDisplay:10.37,2013-02-18 00:18:00,
2013-02-17 17:23:00,35.8,20.3,29.34,SSE,158,3.3,3.3,53,0.00,CLR,,0.00,WeatherDisplay:10.37,2013-02-18 00:23:00,
2013-02-17 17:28:00,35.6,20.1,29.34,SSE,158,3.6,3.6,53,0.00,CLR,,0.00,WeatherDisplay:10.37,2013-02-18 00:28:00,
2013-02-17 17:33:00,35.4,20.0,29.34,SE,135,3.5,3.5,53,0.00,CLR,,0.00,WeatherDisplay:10.37,2013-02-18 00:33:00,
2013-02-17 17:38:00,35.1,19.6,29.34,WNW,292,0.0,1.1,53,0.00,CLR,,0.00,WeatherDisplay:10.37,2013-02-18 00:38:00,
2013-02-17 17:43:00,34.7,19.7,29.33,SW,225,0.0,0.6,54,0.00,CLR,,0.00,WeatherDisplay:10.37,2013-02-18 00:43:00,
2013-02-17 17:48:00,34.7,19.7,29.33,ENE,68,2.3,2.3,54,0.00,CLR,,0.00,WeatherDisplay:10.37,2013-02-18 00:48:00,
2013-02-17 17:53:00,34.3,19.4,29.33,West,270,0.0,0.5,54,0.00,CLR,,0.00,WeatherDisplay:10.37,2013-02-18 00:53:00,
2013-02-17 17:58:00,34.2,19.2,29.33,NE,45,0.0,0.2,54,0.00,CLR,,0.00,WeatherDisplay:10.37,2013-02-18 00:58:00,
2013-02-17 18:03:00,34.0,19.1,29.32,WSW,248,0.0,0.0,54,0.00,CLR,,0.00,WeatherDisplay:10.37,2013-02-18 01:03:00,
2013-02-17 18:08:00,34.0,19.5,29.32,SW,225,0.0,0.1,55,0.00,CLR,,0.00,WeatherDisplay:10.37,2013-02-18 01:08:00,
2013-02-17 18:13:00,34.0,19.5,29.32,NE,45,0.0,0.1,55,0.00,CLR,,0.00,WeatherDisplay:10.37,2013-02-18 01:13:00,
2013-02-17 18:18:00,33.6,19.2,29.32,NNW,338,1.5,1.5,55,0.00,CLR,,0.00,WeatherDisplay:10.37,2013-02-18 01:18:00,
2013-02-17 18:23:00,33.4,19.4,29.33,SW,225,2.6,2.6,56,0.00,CLR,,0.00,WeatherDisplay:10.37,2013-02-18 01:23:00,
2013-02-17 18:28:00,33.3,19.2,29.33,West,270,0.0,1.0,56,0.00,CLR,,0.00,WeatherDisplay:10.37,2013-02-18 01:28:00,
2013-02-17 18:33:00,33.3,20.1,29.33,WSW,248,1.1,1.1,58,0.00,CLR,,0.00,WeatherDisplay:10.37,2013-02-18 01:33:00,
2013-02-17 18:38:00,32.9,19.3,29.33,NE,45,1.1,1.1,57,0.00,CLR,,0.00,WeatherDisplay:10.37,2013-02-18 01:38:00,
2013-02-17 18:43:00,32.7,19.6,29.34,NW,315,1.1,1.1,58,0.00,CLR,,0.00,WeatherDisplay:10.37,2013-02-18 01:43:00,
2013-02-17 18:48:00,32.7,19.6,29.34,East,90,2.3,2.3,58,0.00,CLR,,0.00,WeatherDisplay:10.37,2013-02-18 01:48:00,
2013-02-17 18:53:00,32.5,19.4,29.34,SE,135,2.0,2.0,58,0.00,CLR,,0.00,WeatherDisplay:10.37,2013-02-18 01:53:00,
2013-02-17 18:58:00,32.2,19.0,29.34,East,90,0.0,0.1,58,0.00,CLR,,0.00,WeatherDisplay:10.37,2013-02-18 01:58:00,
2013-02-17 19:03:00,32.0,18.9,29.36,South,180,0.0,0.0,58,0.00,CLR,,0.00,WeatherDisplay:10.37,2013-02-18 02:03:00,
2013-02-17 19:08:00,32.2,19.4,29.36,East,90,0.0,0.0,59,0.00,CLR,,0.00,WeatherDisplay:10.37,2013-02-18 02:08:00,
2013-02-17 19:13:00,31.8,19.1,29.36,NE,45,0.0,0.0,59,0.00,CLR,,0.00,WeatherDisplay:10.37,2013-02-18 02:13:00,
2013-02-17 19:18:00,31.8,19.1,29.36,SE,135,0.0,0.0,59,0.00,CLR,,0.00,WeatherDisplay:10.37,2013-02-18 02:18:00,
2013-02-17 19:23:00,31.8,19.1,29.36,ENE,68,0.0,0.0,59,0.00,CLR,,0.00,WeatherDisplay:10.37,2013-02-18 02:23:00,
2013-02-17 19:28:00,31.8,19.5,29.36,ENE,68,0.0,0.0,60,0.00,CLR,,0.00,WeatherDisplay:10.37,2013-02-18 02:28:00,
2013-02-17 19:33:00,31.8,19.5,29.36,ENE,68,0.0,0.0,60,0.00,CLR,,0.00,WeatherDisplay:10.37,2013-02-18 02:33:00,
2013-02-17 19:38:00,31.8,19.5,29.36,ENE,68,0.0,0.0,60,0.00,CLR,,0.00,WeatherDisplay:10.37,2013-02-18 02:38:00,
2013-02-17 19:43:00,31.5,19.2,29.37,NNW,338,0.0,0.0,60,0.00,CLR,,0.00,WeatherDisplay:10.37,2013-02-18 02:43:00,
2013-02-17 19:48:00,31.5,19.2,29.37,South,180,1.1,1.1,60,0.00,CLR,,0.00,WeatherDisplay:10.37,2013-02-18 02:48:00,
2013-02-17 19:53:00,31.1,19.2,29.37,SSW,202,0.0,0.1,61,0.00,CLR,,0.00,WeatherDisplay:10.37,2013-02-18 02:53:00,
2013-02-17 19:58:00,31.1,19.2,29.37,WNW,292,0.0,0.0,61,0.00,CLR,,0.00,WeatherDisplay:10.37,2013-02-18 02:58:00,
2013-02-17 20:03:00,30.9,19.0,29.37,NE,45,0.0,0.0,61,0.00,CLR,,0.00,WeatherDisplay:10.37,2013-02-18 03:03:00,
2013-02-17 20:08:00,31.1,19.2,29.37,NNW,338,0.0,0.0,61,0.00,CLR,,0.00,WeatherDisplay:10.37,2013-02-18 03:08:00,
2013-02-17 20:13:00,30.7,18.9,29.37,SSW,202,0.0,0.1,61,0.00,CLR,,0.00,WeatherDisplay:10.37,2013-02-18 03:13:00,
2013-02-17 20:18:00,30.6,18.7,29.37,NE,45,0.0,0.2,61,0.00,CLR,,0.00,WeatherDisplay:10.37,2013-02-18 03:18:00,
2013-02-17 20:23:00,30.4,18.5,29.38,East,90,0.0,0.1,61,0.00,CLR,,0.00,WeatherDisplay:10.37,2013-02-18 03:23:00,
2013-02-17 20:28:00,30.4,18.5,29.38,NW,315,2.3,2.3,61,0.00,CLR,,0.00,WeatherDisplay:10.37,2013-02-18 03:28:00,
2013-02-17 20:33:00,30.4,18.5,29.38,ESE,112,0.0,0.3,61,0.00,CLR,,0.00,WeatherDisplay:10.37,2013-02-18 03:33:00,
2013-02-17 20:38:00,30.4,18.5,29.38,NNW,338,0.0,0.3,61,0.00,CLR,,0.00,WeatherDisplay:10.37,2013-02-18 03:38:00,
2013-02-17 20:43:00,30.4,18.5,29.38,East,90,0.0,0.0,61,0.00,CLR,,0.00,WeatherDisplay:10.37,2013-02-18 03:43:00,
2013-02-17 20:48:00,30.0,17.8,29.38,NNW,338,0.0,0.0,60,0.00,CLR,,0.00,WeatherDisplay:10.37,2013-02-18 03:48:00,
2013-02-17 20:53:00,30.0,18.2,29.38,North,0,0.0,0.0,61,0.00,CLR,,0.00,WeatherDisplay:10.37,2013-02-18 03:53:00,
2013-02-17 20:58:00,29.8,18.0,29.38,NNW,338,0.0,0.0,61,0.00,CLR,,0.00,WeatherDisplay:10.37,2013-02-18 03:58:00,
2013-02-17 21:03:00,29.7,17.8,29.38,North,0,0.0,0.0,61,0.00,CLR,,0.00,WeatherDisplay:10.37,2013-02-18 04:03:00,
2013-02-17 21:08:00,29.7,17.8,29.38,North,0,0.0,0.0,61,0.00,CLR,,0.00,WeatherDisplay:10.37,2013-02-18 04:08:00,
2013-02-17 21:13:00,29.7,17.8,29.38,NE,45,0.0,0.0,61,0.00,CLR,,0.00,WeatherDisplay:10.37,2013-02-18 04:13:00,
2013-02-17 21:18:00,29.7,17.8,29.38,ENE,68,0.0,0.0,61,0.00,CLR,,0.00,WeatherDisplay:10.37,2013-02-18 04:18:00,
2013-02-17 21:23:00,29.7,17.8,29.39,SE,135,0.0,0.0,61,0.00,CLR,,0.00,WeatherDisplay:10.37,2013-02-18 04:23:00,
2013-02-17 21:28:00,29.7,17.8,29.39,SE,135,0.0,0.0,61,0.00,CLR,,0.00,WeatherDisplay:10.37,2013-02-18 04:28:00,
2013-02-17 21:33:00,29.7,17.8,29.39,North,0,0.0,0.0,61,0.00,CLR,,0.00,WeatherDisplay:10.37,2013-02-18 04:33:00,
2013-02-17 21:38:00,29.7,17.8,29.39,NE,45,0.0,0.0,61,0.00,CLR,,0.00,WeatherDisplay:10.37,2013-02-18 04:38:00,
2013-02-17 21:43:00,29.7,17.8,29.39,NE,45,0.0,0.0,61,0.00,CLR,,0.00,WeatherDisplay:10.37,2013-02-18 04:43:00,
2013-02-17 23:55:00,30.0,18.6,29.40,SSW,202,0.0,0.0,62,0.00,CLR,,0.00,WeatherDisplay:10.37,2013-02-18 06:55:00,
2013-02-17 23:56:00,29.8,18.4,29.40,NE,45,0.0,0.0,62,0.00,CLR,,0.00,WeatherDisplay:10.37,2013-02-18 06:56:00,
2013-02-17 23:57:00,29.8,18.4,29.40,NE,45,0.0,0.0,62,0.00,CLR,,0.00,WeatherDisplay:10.37,2013-02-18 06:57:00,